Location: Im Fang
(46.6019°N, 7.2397°E)
Time: 22:06:21
(UTC+00:00)

MOS 1-B - Pass Details

Date: 08 December 2019
Orbit: 905 x 914 km, 99.4° (Epoch: 17 January)

Event Time Altitude Azimuth Distance (km) Brightness Sun altitude
Rises 04:44:42 0° 16° (NNE) 3,548 7.5 -22.6°
Reaches altitude 10° 04:47:07 10° 17° (NNE) 2,602 6.8 -22.2°
Maximum altitude 04:52:56 79° 105° (ESE) 927 4.4 -21.2°
Drops below altitude 10° 04:58:42 10° 192° (SSW) 2,580 6.7 -20.3°
Sets 05:01:06 0° 194° (SSW) 3,516 7.4 -19.9°
